Overview Statistics Trail Chart Weather Telemetry Raw packets
 

This is the latest recevied weather packets stored in our database for station/object W8KVG. If no packets are shown the sender has not sent any weather packets the latest 10 day(s).

<< 58 59 60 61 62 63 64 >>
Time Temp. Humidity Pressure Rain* Wind** Luminosity Snow
1777492953 13.89° C 99% 1005.4 hPa 0 mm - 44 W/m² -
1777492650 13.89° C 99% 1005.7 hPa 0 mm - 82 W/m² -
1777492345 13.89° C 99% 1005.5 hPa 0.51 mm - 91 W/m² -
1777492041 14.44° C 99% 1005.4 hPa 0.51 mm - 141 W/m² -
1777491739 13.89° C 99% 1005.4 hPa 0.51 mm - 137 W/m² -
1777491435 13.89° C 99% 1005.4 hPa 0 mm - 61 W/m² -
1777491133 13.89° C 99% 1005.6 hPa 0 mm - 56 W/m² -
1777490828 13.89° C 99% 1005.5 hPa 0 mm - 85 W/m² -
1777490524 13.89° C 99% 1005.5 hPa 0 mm - 42 W/m² -
1777490220 14.44° C 99% 1005.3 hPa 0 mm - 89 W/m² -
1777489918 13.89° C 99% 1005.4 hPa 0 mm - 126 W/m² -
1777489616 13.89° C 99% 1005.6 hPa 1.27 mm - 94 W/m² -
1777489312 13.89° C 99% 1005.6 hPa 1.78 mm - 49 W/m² -
1777489009 13.89° C 99% 1005.6 hPa 0.51 mm - 29 W/m² -
1777488706 13.89° C 99% 1005.6 hPa 0.51 mm - 29 W/m² -
1777488404 14.44° C 99% 1005.5 hPa 1.27 mm - 39 W/m² -
1777488102 15° C 99% 1005.4 hPa 1.27 mm - 82 W/m² -
1777487800 15° C 99% 1005.3 hPa 0.51 mm - 38 W/m² -
1777487497 15.56° C 99% 1005.3 hPa 2.29 mm - 44 W/m² -
1777487195 15.56° C 99% 1005.4 hPa 3.05 mm - 18 W/m² -
1777486890 15.56° C 99% 1005.4 hPa 0.51 mm - 39 W/m² -
1777486587 15.56° C 99% 1005.2 hPa 0 mm - 73 W/m² -
1777486285 15.56° C 99% 1005.3 hPa 0 mm - 56 W/m² -
1777485983 15.56° C 99% 1005.2 hPa 0 mm - 84 W/m² -
1777485679 15.56° C 99% 1005.4 hPa 0 mm - 32 W/m² -

* Rain latest hour (hover to see other rain measurements)
** Current wind speed in m/s (hover to see current wind gust speed)